This demonstration page uses our WeatherBlox Daily Observations layout. Learn more.

Left ArrowRight Arrow

Hourly Observations for September 10, 2016

Temp ( °F °C ) Dew Point ( °F °C ) Humidity (%) Winds ( mph kmh ) Pressure ( in mb ) Visibility ( mi km ) Precip ( " mm )
12:51 am 00:51 Clear 74 23.3 56 13.3 54 54 NNW 8 13 29.85 1011 10 16.0934 0 0
1:51 am 01:51 Clear 74 23.3 55 12.8 52 52 NW 5 7 29.86 1011 10 16.0934 0 0
2:51 am 02:51 Clear 69 20.6 60 15.6 73 73 ENE 6 9 29.86 1011 10 16.0934 0 0
3:51 am 03:51 Clear 68 20 59 15 73 73 ESE 3 6 29.86 1011 10 16.0934 0 0
4:51 am 04:51 Clear 69 20.6 57 13.9 66 66 SE 6 9 29.89 1012 10 16.0934 0 0
5:51 am 05:51 Clear 66 18.9 59 15 78 78 ESE 3 6 29.92 1013 10 16.0934 0 0
6:51 am 06:51 Sunny 69 20.6 59 15 70 70 Calm 29.95 1014 10 16.0934 0 0
7:51 am 07:51 Sunny 74 23.3 58 14.4 57 57 E 3 6 29.97 1015 10 16.0934 0 0
8:51 am 08:51 Sunny 80 26.7 54 12.2 41 41 ESE 12 19 29.99 1016 10 16.0934 0 0
9:51 am 09:51 Sunny 82 27.8 57 13.9 42 42 SSE 12 19 30.02 1017 10 16.0934 0 0
10:51 am 10:51 Sunny 88 31.1 54 12.2 31 31 SSE 9 15 30.01 1016 10 16.0934 0 0
11:51 am 11:51 Sunny 90 32.2 54 12.2 29 29 SSE 10 17 30 1016 10 16.0934 0 0
12:51 pm 12:51 Sunny 92 33.3 54 12.2 28 28 SE 13 20 29.99 1016 10 16.0934 0 0
1:51 pm 13:51 Sunny 93 33.9 54 12.2 27 27 E 14 22 29.97 1015 10 16.0934 0 0
2:51 pm 14:51 Sunny 93 33.9 53 11.7 26 26 ESE 13 20 29.96 1014 10 16.0934 0 0
3:51 pm 15:51 Sunny 93 33.9 53 11.7 26 26 SSE 10 17 29.94 1014 10 16.0934 0 0
4:51 pm 16:51 Sunny 91 32.8 53 11.7 27 27 ESE 9 15 29.94 1014 10 16.0934 0 0
5:51 pm 17:51 Sunny 89 31.7 53 11.7 29 29 ESE 9 15 29.95 1014 10 16.0934 0 0
6:51 pm 18:51 Clear 85 29.4 53 11.7 33 33 ESE 8 13 29.96 1015 10 16.0934 0 0
7:51 pm 19:51 Clear 81 27.2 55 12.8 41 41 E 8 13 29.97 1015 10 16.0934 0 0
8:51 pm 20:51 Clear 80 26.7 54 12.2 41 41 ESE 7 11 29.99 1016 10 16.0934 0 0
9:51 pm 21:51 Clear 79 26.1 55 12.8 44 44 SSE 3 6 30 1016 10 16.0934 0 0
10:51 pm 22:51 Clear 76 24.4 56 13.3 50 50 SSE 8 13 30.01 1016 10 16.0934 0 0
11:51 pm 23:51 Clear 75 23.9 56 13.3 52 52 E 7 11 30.02 1017 10 16.0934 0 0

Powered by AerisWeather